Total_Precipitation_Accumulation
0.47 0.16 0.15 0.28 0.24 0.16 0.13 0.09 0.06 0.05 0.09 0.07 0.07 0.05 0.05 0.04 0.06 0.04 0.12 0.17 0.11 0.13 0.09 0.02 0.02 0.06 0.10 0.12 0.18 0.28 0.20 0.30 0.48 0.76 0.61 0.50 0.34 0.32 0.36 0.45 0.60 0.94 1.17
0.75 0.47 0.47 0.35 0.17 0.15 0.21 0.15 0.09 0.07 0.10 0.07 0.03 0.01 0.01 0.01 0.02 0.05 0.17 0.24 0.23 0.16 0.13 0.05 0.05 0.07 0.14 0.11 0.10 0.13 0.13 0.10 0.14 0.41 0.69 0.93 0.73 0.53 0.64 0.62 0.49 0.67 0.93
1.56 1.10 1.61 1.35 0.68 0.31 0.27 0.23 0.09 0.08 0.06 0.05 0.02 0.01 0.02 0.02 0.02 0.03 0.04 0.12 0.15 0.10 0.09 0.05 0.06 0.08 0.10 0.10 0.13 0.12 0.05 0.03 0.08 0.20 0.49 0.83 0.73 1.04 0.62 0.42 0.38 0.60 0.76
1.52 1.61 1.47 2.33 1.47 1.00 0.75 0.82 0.87 0.41 0.29 0.09 0.07 0.10 0.12 0.09 0.08 0.09 0.06 0.10 0.09 0.09 0.10 0.10 0.12 0.14 0.13 0.12 0.12 0.09 0.03 0.02 0.02 0.11 0.37 1.28 0.85 0.99 0.77 0.47 0.56 0.70 0.85
1.09 1.01 1.31 2.12 1.59 1.06 1.15 1.15 1.68 2.01 1.89 1.04 0.46 0.42 0.39 0.31 0.20 0.12 0.11 0.11 0.11 0.16 0.15 0.10 0.17 0.17 0.07 0.03 0.08 0.11 0.01 0.02 0.05 0.19 1.02 0.85 0.84 1.37 1.55 0.94 0.82 0.67 0.90
2.08 1.53 1.80 2.17 1.34 0.75 1.13 1.46 1.53 2.18 3.37 4.19 4.09 2.55 1.36 0.89 0.47 0.41 0.30 0.26 0.27 0.33 0.40 0.43 0.45 0.36 0.03 0.01 0.00 0.02 0.01 0.04 0.20 0.38 1.25 0.63 1.03 1.18 1.15 1.01 0.58 0.62 0.91
4.59 4.05 3.70 4.00 5.13 2.85 2.56 1.76 1.36 1.47 2.52 4.90 5.29 3.92 2.58 1.92 1.71 1.18 0.68 0.51 0.55 0.52 0.42 0.44 0.26 0.19 0.03 0.01 0.01 0.05 0.04 0.06 0.20 0.45 1.00 0.64 1.25 1.15 0.99 0.88 0.69 0.55 0.62
6.63 8.76 9.07 7.75 8.10 7.64 4.86 3.04 1.99 1.41 1.26 1.68 2.38 2.00 2.08 2.34 1.79 1.63 1.44 0.88 0.60 0.43 0.40 0.29 0.13 0.08 0.06 0.03 0.04 0.10 0.07 0.04 0.16 0.60 1.20 0.82 1.09 1.22 0.77 0.64 0.46 0.37 0.33
5.54 7.05 10.73 9.54 7.17 5.94 6.78 5.98 3.58 2.63 1.74 1.50 1.47 1.78 1.43 2.21 1.71 1.27 1.40 1.61 0.78 0.42 0.62 0.48 0.33 0.54 0.22 0.24 0.21 0.19 0.11 0.10 0.21 0.44 0.90 0.59 0.81 1.38 0.97 0.58 0.41 0.30 0.27
2.60 3.37 3.97 4.08 3.31 2.92 3.65 4.60 4.44 3.05 2.55 2.21 1.49 1.61 1.74 1.69 1.59 1.43 1.46 1.68 1.33 0.59 0.52 0.52 0.69 0.52 0.57 0.39 0.22 0.26 0.30 0.29 0.16 0.54 0.58 0.35 0.65 1.12 1.10 0.67 0.52 0.43 0.29
2.30 1.64 1.68 1.29 0.89 0.87 1.33 2.07 2.81 2.59 2.65 2.61 2.12 1.37 2.08 2.20 1.31 1.60 1.83 1.64 1.13 0.61 0.56 0.59 0.57 0.61 0.59 0.63 0.65 0.63 0.45 0.20 0.30 0.36 0.39 0.23 0.54 0.62 0.92 1.11 0.79 0.55 0.49
0.94 0.78 0.51 0.41 0.32 0.29 0.29 0.44 0.79 1.56 2.30 2.35 2.90 1.66 1.55 2.42 1.42 1.50 1.89 1.38 1.16 0.76 0.54 0.56 0.52 0.56 0.54 0.44 0.59 0.52 0.25 0.19 0.30 0.55 0.31 0.24 0.43 0.45 0.83 1.03 0.67 0.66 0.69
0.32 0.22 0.28 0.49 0.50 0.23 0.22 0.19 0.28 0.72 1.52 1.60 2.60 2.25 0.99 1.40 1.70 1.82 2.22 1.40 0.98 0.93 0.74 0.65 0.38 0.32 0.27 0.29 0.34 0.38 0.41 0.42 0.51 0.52 0.41 0.21 0.41 0.58 0.84 0.66 0.55 0.55 0.56
0.16 0.16 0.12 0.18 0.26 0.27 0.26 0.25 0.28 0.54 0.95 1.01 1.36 2.42 1.19 1.10 1.27 1.56 1.64 1.25 0.66 0.59 0.57 0.61 0.46 0.40 0.38 0.43 0.38 0.37 0.48 0.77 0.88 1.14 0.53 0.28 0.47 0.94 0.79 0.70 0.52 0.45 0.48
0.08 0.16 0.20 0.20 0.37 0.46 0.47 0.35 0.27 0.77 0.93 0.85 0.87 1.25 1.18 1.11 0.98 1.39 1.17 1.44 0.80 0.56 0.47 0.50 0.40 0.35 0.32 0.35 0.25 0.32 0.43 0.71 1.29 1.06 0.68 0.35 0.36 0.65 0.92 0.91 0.70 0.47 0.52
0.10 0.19 0.28 0.29 0.44 0.35 0.49 0.56 0.65 0.81 0.95 0.79 0.71 0.89 0.94 1.09 1.07 1.26 1.12 1.07 1.00 1.00 0.53 0.49 0.46 0.27 0.30 0.34 0.38 0.26 0.28 0.33 0.53 0.57 0.40 0.26 0.47 0.69 1.12 1.32 1.30 1.05 0.60
0.22 0.25 0.42 0.65 0.55 0.28 0.25 0.30 0.64 1.06 0.87 0.77 0.77 0.80 0.84 0.83 0.88 0.94 0.98 0.90 0.79 1.24 0.83 0.58 0.63 0.62 0.45 0.31 0.32 0.35 0.37 0.22 0.15 0.17 0.23 0.19 0.33 0.54 0.67 0.95 1.19 1.30 1.27
0.07 0.19 0.43 0.60 0.57 0.51 0.32 0.45 0.48 0.83 1.08 0.90 0.68 0.72 1.01 0.93 0.85 0.73 0.90 0.75 0.95 0.98 0.80 0.65 0.81 0.84 0.72 0.36 0.34 0.33 0.40 0.38 0.30 0.21 0.13 0.14 0.16 0.16 0.33 0.64 0.82 1.21 1.38
0.02 0.19 0.61 0.80 0.77 0.74 0.65 0.64 0.90 0.87 0.92 0.72 0.74 0.66 0.64 0.64 0.85 0.73 0.75 0.91 1.17 1.27 1.15 1.15 1.03 0.99 0.76 0.59 0.36 0.25 0.26 0.27 0.17 0.18 0.10 0.06 0.07 0.10 0.13 0.30 0.50 0.70 1.25
0.03 0.26 0.64 0.84 1.09 1.18 1.10 0.96 0.77 0.73 0.66 0.67 0.60 0.64 0.73 0.76 0.72 0.84 0.76 0.75 1.02 1.33 1.02 0.93 0.79 0.80 0.71 0.64 0.46 0.40 0.37 0.33 0.21 0.12 0.09 0.06 0.05 0.09 0.13 0.15 0.29 0.33 0.43
0.10 0.40 0.69 0.82 1.10 1.08 0.61 0.51 0.55 0.54 0.41 0.56 0.57 0.64 0.82 1.02 1.01 0.91 0.83 0.81 0.94 0.97 0.94 1.15 1.38 1.56 1.32 0.89 0.75 0.65 0.45 0.36 0.29 0.17 0.10 0.09 0.07 0.07 0.10 0.12 0.18 0.29 0.26
0.24 0.52 0.61 0.48 0.34 0.17 0.13 0.26 0.40 0.49 0.49 0.46 0.54 0.72 0.67 1.00 1.00 0.85 0.86 0.85 0.99 1.09 0.99 0.79 0.87 0.97 0.97 0.88 0.80 0.71 0.68 0.59 0.45 0.25 0.12 0.08 0.07 0.09 0.12 0.13 0.14 0.21 0.28
0.15 0.16 0.12 0.10 0.08 0.12 0.15 0.36 0.58 0.89 0.82 0.68 0.56 0.57 0.73 0.91 1.08 0.98 0.88 0.78 0.79 1.17 1.42 1.19 1.07 1.02 0.87 0.84 0.69 0.67 0.74 0.60 0.37 0.31 0.24 0.11 0.11 0.11 0.12 0.20 0.19 0.23 0.26
0.03 0.14 0.15 0.14 0.14 0.19 0.25 0.36 0.52 0.50 0.38 0.27 0.26 0.30 0.42 0.76 1.13 0.93 1.17 1.24 1.16 0.93 1.08 1.44 1.39 1.18 1.20 1.17 1.17 0.90 0.61 0.68 0.65 0.60 0.34 0.32 0.21 0.23 0.22 0.25 0.31 0.40 0.33
0.09 0.16 0.18 0.17 0.17 0.19 0.29 0.39 0.71 0.79 0.77 0.73 0.84 0.97 1.05 1.17 1.43 1.36 1.15 1.57 1.69 1.59 1.25 1.52 1.85 2.00 1.81 1.77 1.64 1.43 1.29 1.20 1.05 0.91 0.72 0.58 0.62 0.47 0.43 0.45 0.45 0.52 0.54
0.13 0.17 0.14 0.27 0.40 0.68 0.92 1.09 1.26 1.43 1.43 1.42 1.38 1.37 1.44 1.62 1.88 1.96 2.05 1.98 2.37 2.31 2.04 1.72 1.68 2.06 2.41 2.30 1.92 1.87 1.49 1.30 1.13 1.23 0.96 0.76 0.94 0.93 0.79 0.79 0.69 0.66 0.81